#timestamp,LO_Frequency,Hit,StdDev 
1643824815.5,286046999.5,N
1643824835.3,286046997.4,N
1643824855.2,286046996.6,N
1643824875.0,286046998.7,N
1643824875.9,286046998.7,N
1643824895.8,286046998.5,N
1643824915.6,286047000.0,N
1643824935.4,286047000.3,N
1643824955.3,286047000.4,N
1643824975.1,286046998.1,N
1643824995.8,286046999.5,N
1643825015.7,286046998.9,N
1643825035.5,286047001.0,N
1643825055.4,286046999.1,N
1643825075.2,286046999.2,N
1643825095.0,286046996.9,N
1643825095.9,286046996.9,N
1643825115.8,286046997.3,N
1643825135.6,286046996.6,N
1643825155.4,286047000.8,N
1643825175.3,286046999.8,N
1643825195.1,286046999.4,N
1643825215.9,286046998.1,N
1643825235.7,286046999.5,N
1643825255.5,286046998.4,N
1643825275.4,286046999.0,N
1643825295.2,286046995.6,Y
1643825315.0,286046999.0,P
1643825316.0,286046999.0,P
1643825335.8,286046998.1,P
1643825355.6,286046999.1,N
1643825375.5,286046996.7,Y
1643825395.3,286046998.3,P
1643825415.1,286046996.6,P
1643825435.9,286046996.7,P
1643825455.7,286046999.2,N
1643825475.6,286047001.2,N
1643825495.4,286046998.1,N
1643825515.2,286046998.2,N
1643825535.1,286046997.0,N
1643825536.0,286046997.0,N
1643825555.8,286046999.2,N
1643825575.6,286046997.0,N
1643825595.5,286046996.2,N
1643825615.3,286046997.0,N
1643825635.2,286046998.0,N
1643825655.9,286046999.4,N
1643825675.7,286046999.6,N
1643825695.6,286047002.4,N
1643825715.4,286047000.7,N
1643825735.2,286047000.4,N
1643825755.1,286046999.3,N
1643825756.0,286046999.3,N
1643825775.8,286046999.0,N
1643825795.7,286046998.9,N
1643825815.5,286046998.1,N
1643825835.3,286046998.8,N
1643825855.2,286046998.1,N
1643825875.9,286047000.5,N
1643825895.7,286046998.8,N
1643825915.6,286046998.2,N
1643825935.4,286046998.7,N
1643825955.2,286046999.0,N
1643825975.1,286046999.5,N
1643825976.0,286046999.5,N
1643825995.8,286046999.9,N
1643826015.7,286047002.4,N
1643826035.5,286047000.5,N
1643826055.3,286046998.1,N
1643826075.2,286046998.3,N
1643826095.0,286046998.8,N
1643826095.9,286046998.8,N
1643826115.7,286046998.9,N
1643826135.6,286046999.1,N
1643826155.4,286046997.5,N
1643826175.3,286046997.5,N
1643826195.1,286046996.5,Y
1643826215.8,286046999.4,P
1643826235.7,286046997.7,P
1643826255.5,286046996.7,P
1643826275.4,286046997.3,N
1643826295.2,286046996.6,Y
1643826315.0,286047000.4,P
1643826315.9,286047000.4,N
1643826335.8,286047001.0,N
1643826355.6,286046996.6,Y
1643826375.4,286046999.5,P
1643826395.3,286047001.0,P
1643826415.1,286047000.0,N
1643826435.9,286047002.5,Y
1643826455.7,286047000.8,P
1643826475.5,286047002.8,P
1643826495.4,286047000.7,N
1643826515.2,286046999.3,N
1643826535.0,286046998.4,N
1643826535.9,286046998.4,N
1643826555.8,286046996.9,N
1643826575.6,286046996.7,N
1643826595.5,286046999.5,N
1643826615.3,286046999.6,N
1643826635.1,286046999.3,N
1643826655.9,286046999.9,N
1643826675.7,286047001.5,N
1643826695.5,286047001.1,N
1643826715.4,286046998.5,N
1643826735.2,286047001.1,N
1643826755.1,286046999.0,N
1643826756.0,286046999.0,N
1643826775.8,286046999.3,N
1643826795.6,286046999.4,N
1643826815.5,286047002.3,N
1643826835.3,286047001.4,N
1643826855.2,286047000.9,N
1643826875.9,286047000.3,N
1643826895.7,286047003.7,N
1643826915.6,286047002.1,N
1643826935.4,286047002.1,N
1643826955.2,286047000.1,N
1643826975.1,286046999.2,N
1643826976.0,286046999.2,N
1643826995.8,286046998.7,N
1643827015.7,286046998.6,N
1643827035.5,286046999.0,N
1643827055.3,286046998.7,N
1643827075.2,286047000.8,N
1643827095.0,286046998.3,N
1643827095.9,286046998.3,N
1643827115.7,286046999.1,N
1643827135.6,286046997.8,N
1643827155.4,286046997.8,N
1643827175.3,286046995.3,Y
1643827195.1,286046998.5,P
1643827215.8,286046998.4,N
1643827235.7,286047000.4,N
1643827255.5,286047001.4,N
1643827275.3,286047002.8,N
1643827295.2,286047003.7,N
1643827315.0,286047000.8,N
1643827315.9,286047000.8,N
1643827335.8,286046998.3,N
1643827355.6,286046998.7,N
1643827375.4,286046998.9,N
1643827395.3,286046998.8,N
1643827415.1,286047000.6,N
1643827435.9,286046999.0,N
1643827455.7,286046999.3,N
1643827475.5,286046998.3,N
1643827495.4,286046998.7,N
1643827515.2,286046995.5,N
1643827535.0,286046993.3,Y
1643827535.9,286046993.3,P
1643827555.8,286046997.0,N
1643827575.6,286046994.9,N
1643827595.5,286046995.4,N
1643827615.3,286046995.3,N
1643827635.1,286046995.8,N
1643827655.9,286046995.6,N
1643827675.7,286046997.0,N
1643827695.5,286046996.7,N
1643827715.4,286046995.2,Y
1643827735.2,286046998.4,P
1643827755.1,286047000.9,N
1643827756.0,286047000.9,N
1643827775.8,286047000.7,N
1643827795.6,286047001.1,N
1643827815.5,286046999.6,N
1643827835.3,286047000.7,N
1643827855.1,286046996.5,N
1643827875.9,286046997.3,N
1643827895.7,286046998.0,N
1643827915.6,286046998.9,N
1643827935.4,286046999.4,N
1643827955.2,286046996.6,N
1643827975.1,286046999.3,N
1643827976.0,286046999.3,N
1643827995.8,286046997.1,N
1643828015.6,286046997.4,N
1643828035.5,286046997.6,N
1643828055.3,286046995.0,Y
1643828075.2,286047000.7,P
1643828095.9,286047001.1,N
1643828115.7,286046999.1,N
1643828135.6,286046998.1,N
1643828155.4,286047000.8,N
1643828175.2,286047000.4,N
1643828195.1,286047002.7,N
1643828196.0,286047002.7,N
1643828215.8,286047002.3,N
1643828235.7,286047001.6,N
1643828255.5,286047002.2,N
1643828275.3,286047001.5,N
1643828295.2,286047002.6,N
1643828315.9,286047001.4,N
1643828335.7,286047000.7,N
1643828355.6,286047000.7,N
1643828375.4,286046996.7,N
1643828395.3,286046997.2,N
